Volver al catálogo

STARLINK-37423

ActivoComunicacionesSSO
NORAD 68852·PAYLOAD·🇺🇸 United States

Lanzado Apr 26, 2026 desde Vandenberg Space Force Base

Loading…

Próximos Pases (próximas 24 horas)

TLE

ActualizadoSource: CelesTrak SupGP

Época: Sep 15, 2026, 03:34 UTC

1 68852C 26094P   26258.14909722 -.00071821  00000+0 -22299-2 0  2581
2 68852  97.2834 271.3674 0001541  97.5323  81.6741 15.33469180    12

Sigue STARLINK-37423 en tiempo real con AllMySat

Download on the App Store